[[{"header":{"parameterUnit":"m.s-1","parameterCategory":2,"la1":30.2991,"la2":30.254,"lo1":-89.0895,"lo2":-89.0444,"dy":0.0017,"dx":0.0017,"nx":28,"ny":28,"refTime":"2025-09-05T09:00:00:Z","depth":"0","parameterNumber":2,"parameterNumberName":"U-component_of_CURRENTS"},"data":[0,0,0,0,0,0,0,0,0,0,0,0,0,0,0,0,0,0,0,0,0,0,0,0,0,0,0,0,0,0,0,0,0,0,0,0,0,0,0,0,0,0,0,0,0,0,0,0,0,0,0,0,0,0,0,0,0,0,0.2666,0.2666,0,0.2663,0.2663,0.2663,0.266,0.266,0.266,0.266,0.2596,0.2594,0.2592,0,0,0,0,0,0,0,0,0,0,0,0,0,0.2684,0.2683,0.2666,0.2666,0.2666,0.2664,0.2663,0.2663,0.266,0.266,0.266,0.266,0.2597,0.2594,0.2592,0,0,0,0,0,0,0,0,0,0,0,0,0,0.2675,0.2683,0.2666,0.2666,0.2666,0.2664,0.2663,0.2663,0.2659,0.266,0.266,0.266,0.2597,0.2595,0.2592,0.2569,0,0,0.2583,0.2582,0,0,0,0,0,0,0,0,0.2676,0.2674,0.2666,0.2666,0.2666,0.2664,0.2646,0.2629,0.2659,0.2659,0.266,0.266,0.2615,0.261,0.2606,0.2566,0.2563,0.2583,0.2581,0.258,0.2579,0,0,0,0,0,0,0,0.2676,0.2675,0.2662,0.2666,0.2666,0.2672,0.2671,0.2643,0.2632,0.2659,0.266,0.2664,0.2614,0.2609,0.2605,0.2562,0.2583,0.2581,0.2579,0.2578,0.2534,0.2535,0,0,0,0,0,0,0.2681,0.2675,0.2662,0.2662,0.2675,0.2672,0.267,0.2663,0.2634,0.2631,0.2663,0.2663,0.2614,0.2608,0.2602,0.2622,0.258,0.2577,0.2576,0.2534,0.2534,0.2535,0,0,0,0,0,0,0.2681,0.2679,0.2662,0.2672,0.267,0.2671,0.2663,0.2662,0.266,0.2638,0.2634,0.2663,0.2614,0.2606,0.2582,0.2617,0.2576,0.2574,0.2533,0.2534,0.2535,0.2629,0,0,0,0,0,0,0.2681,0.2679,0.2676,0.2671,0.267,0.2663,0.2663,0.2662,0.2664,0.2664,0.2636,0.263,0.2614,0.2586,0.2579,0.2613,0.2571,0.2532,0.2533,0.2534,0.2625,0.2633,0.2639,0,0,0,0,0,0.2681,0.2678,0.2675,0.2674,0.2665,0.2663,0.2662,0.2663,0.2663,0.2662,0.2645,0.2631,0.2588,0.2584,0.2575,0.2609,0.2532,0.2533,0.2534,0.2622,0.2631,0.2639,0,0,0,0,0,0,0.2691,0.2677,0.2674,0.2668,0.2667,0.2664,0.2665,0.2664,0.265,0.265,0.2626,0.2619,0.2616,0.2588,0.2584,0.2598,0.2562,0.2562,0.2632,0.264,0.2647,0.2655,0.2569,0,0,0,0,0,0.269,0.2678,0.2674,0.267,0.2669,0.2666,0.2667,0.2667,0.2657,0.2652,0.2635,0.2618,0.2613,0.2606,0.2588,0.2584,0.2624,0.2602,0.2609,0.2616,0.2616,0.2756,0.2778,0.2539,0.2539,0.2539,0,0,0.2695,0.2686,0.2681,0.2671,0.2669,0.2676,0.2666,0.2669,0.268,0.2645,0.2647,0.2636,0.2615,0.2623,0.262,0.2605,0.2698,0.2617,0.2624,0.2619,0.276,0.2784,0.2806,0.254,0.254,0.2539,0,0,0.2702,0.2688,0.2685,0.2684,0.2684,0.2684,0.2685,0.2682,0.2685,0.2681,0.2674,0.2683,0.2652,0.2667,0.2666,0.2694,0.273,0.2689,0.2737,0.2875,0.2897,0.2917,0.2982,0.3007,0.2697,0.2697,0.2697,0,0.2711,0.2703,0.2686,0.269,0.27,0.2689,0.2703,0.2703,0.2695,0.2723,0.2688,0.272,0.268,0.2743,0.2735,0.2716,0.278,0.2712,0.2891,0.2911,0.2931,0.2992,0.3019,0.2702,0.2701,0.2701,0.27,0,0.2719,0.2718,0.2718,0.2717,0.2726,0.2733,0.2738,0.275,0.2751,0.2773,0.2824,0.2795,0.2824,0.2816,0.2766,0.2884,0.288,0.289,0.2882,0.2962,0.3019,0.3046,0.2708,0.2707,0.2705,0.2704,0,0,0.2729,0.2723,0.2724,0.2738,0.2743,0.2754,0.2782,0.2825,0.2874,0.288,0.296,0.2938,0.2952,0.2948,0.2929,0.3012,0.3161,0.2996,0.3001,0.3081,0.3442,0.3364,0.3385,0.3235,0.324,0.3245,0.3423,0,0.2744,0.275,0.2751,0.2781,0.2792,0.281,0.2844,0.2888,0.2918,0.2987,0.3021,0.3067,0.3,0.3018,0.3099,0.314,0.3238,0.3109,0.3332,0.3337,0.3279,0.3416,0.3185,0.332,0.3449,0.3453,0.3456,0,0.2753,0.2759,0.2779,0.2825,0.2836,0.2858,0.2939,0.2969,0.3068,0.3099,0.3184,0.3206,0.3289,0.3229,0.3405,0.3338,0.3389,0.3428,0.3438,0.335,0.331,0.3262,0.3363,0.3227,0.3497,0.3494,0.3491,0,0.2763,0.2788,0.2804,0.2814,0.2858,0.2895,0.293,0.3016,0.3079,0.3184,0.3257,0.3367,0.3435,0.354,0.3573,0.3521,0.3785,0.3736,0.3728,0.3721,0.3554,0.3523,0.3566,0.3912,0.3911,0.3911,0.391,0,0.2775,0.2797,0.2811,0.2821,0.2884,0.2911,0.3002,0.3052,0.3164,0.3271,0.332,0.3428,0.3529,0.3665,0.3677,0.3785,0.3892,0.3763,0.3791,0.3572,0.3543,0.3436,0.3386,0.3917,0.3916,0.3915,0.3914,0,0.2785,0.2785,0.2817,0.286,0.2884,0.2931,0.304,0.3119,0.3205,0.3349,0.3393,0.3541,0.3695,0.3788,0.3961,0.3927,0.3894,0.404,0.3731,0.3717,0.3513,0.3475,0.3459,0.3367,0.4044,0.4043,0.4043,0,0.2781,0.2791,0.2837,0.2874,0.2896,0.297,0.3038,0.313,0.3218,0.3413,0.3495,0.3683,0.3779,0.3983,0.3972,0.4033,0.3925,0.3864,0.3707,0.35,0.3481,0.3348,0.3262,0.3515,0.351,0.3507,0.3504,0,0.2787,0.28,0.2829,0.2895,0.2959,0.3037,0.3131,0.3197,0.3323,0.343,0.3581,0.3666,0.3825,0.3774,0.385,0.3845,0.3618,0.3786,0.3686,0.3171,0.292,0.2842,0.3356,0.347,0.3473,0.3476,0.3477,0.3479,0.2789,0.2811,0.2844,0.2914,0.2994,0.3068,0.3087,0.3187,0.3285,0.335,0.3526,0.3538,0.3547,0.3586,0.359,0.3374,0.3423,0.3204,0.3206,0.3115,0.2923,0.333,0.3404,0.3407,0.341,0.3412,0.3414,0,0.2764,0.2799,0.2866,0.2925,0.2988,0.3043,0.3124,0.3092,0.3124,0.32,0.3252,0.3179,0.3097,0.3086,0.2917,0.2781,0.2654,0.27,0.2444,0.2417,0.2875,0.2743,0.2538,0.2538,0.2538,0.2538,0.2538,0.2538,0.2749,0.2781,0.2813,0.2883,0.2934,0.2914,0.2917,0.2873,0.2868,0.2755,0.2665,0.2669,0.2673,0.2555,0.2351,0.2302,0.2139,0.202,0.2108,0.2382,0.2427,0.247,0.2333,0.2045,0.2044,0.1472,0.1468,0.1465]},{"header":{"parameterUnit":"m.s-1","parameterCategory":2,"la1":30.2991,"la2":30.254,"lo1":-89.0895,"lo2":-89.0444,"dy":0.0017,"dx":0.0017,"nx":28,"ny":28,"refTime":"2025-09-05T09:00:00:Z","depth":"0","parameterNumber":3,"parameterNumberName":"V-component_of_CURRENTS"},"data":[0,0,0,0,0,0,0,0,0,0,0,0,0,0,0,0,0,0,0,0,0,0,0,0,0,0,0,0,0,0,0,0,0,0,0,0,0,0,0,0,0,0,0,0,0,0,0,0,0,0,0,0,0,0,0,0,0,0,0.0071,0.0071,0,0.002,0.0019,0.0018,-0.0027,-0.0027,-0.0028,-0.0028,-0.0084,-0.0085,-0.0086,0,0,0,0,0,0,0,0,0,0,0,0,0,0.0104,0.0103,0.0071,0.0071,0.007,0.002,0.0019,0.0018,-0.0027,-0.0027,-0.0028,-0.0028,-0.0084,-0.0085,-0.0086,0,0,0,0,0,0,0,0,0,0,0,0,0,0.0073,0.0103,0.0071,0.0043,0.004,0.002,0.0019,0.0018,-0.0027,-0.0027,-0.0028,-0.0028,-0.0083,-0.0085,-0.0087,-0.0087,0,0,-0.0092,-0.0093,0,0,0,0,0,0,0,0,0.0075,0.0072,0.0048,0.0045,0.0042,0.0004,0.001,-0.0017,-0.0027,-0.0003,-0.0028,-0.0029,-0.0053,-0.0058,-0.0069,-0.0089,-0.0092,-0.0092,-0.0093,-0.0094,-0.0094,0,0,0,0,0,0,0,0.0077,0.0074,0.0049,0.0047,0.0044,0.0024,0.0019,0.0005,-0.0026,-0.0005,-0.0008,-0.0011,-0.0055,-0.0067,-0.007,-0.0092,-0.0092,-0.0094,-0.0095,-0.0095,-0.0123,-0.0122,0,0,0,0,0,0,0.0089,0.0076,0.0051,0.0048,0.0059,0.0024,0.0019,0.0015,-0.0026,-0.0032,-0.001,-0.0013,-0.0064,-0.0068,-0.0072,-0.0067,-0.0094,-0.0095,-0.0096,-0.0123,-0.0123,-0.0122,0,0,0,0,0,0,0.009,0.0087,0.0053,0.0062,0.0056,0.0025,0.0021,0.0014,0.0006,-0.0029,-0.0036,-0.0012,-0.0064,-0.007,-0.0082,-0.007,-0.0096,-0.0098,-0.0123,-0.0123,-0.0122,-0.0062,0,0,0,0,0,0,0.0091,0.0088,0.009,0.0063,0.0056,0.005,0.0021,0.0014,0.0005,0.0002,-0.0033,-0.0039,-0.0065,-0.0079,-0.0084,-0.0073,-0.0099,-0.0124,-0.0123,-0.0122,-0.0064,-0.0059,-0.0055,0,0,0,0,0,0.0092,0.0102,0.009,0.0087,0.006,0.0051,0.0046,0.002,0.0006,0.0009,-0.0018,-0.0038,-0.0079,-0.008,-0.0085,-0.0075,-0.0124,-0.0123,-0.0123,-0.0066,-0.006,-0.0055,0,0,0,0,0,0,0.0117,0.0097,0.0084,0.0086,0.0074,0.0045,0.0044,0.0028,0.0008,0.0003,-0.0032,-0.004,-0.0049,-0.0069,-0.0069,-0.0082,-0.0105,-0.0105,-0.006,-0.0055,-0.0051,-0.0016,-0.0101,0,0,0,0,0,0.0124,0.0125,0.0103,0.0106,0.0102,0.0074,0.0067,0.0051,0.0031,0.0021,-0.0003,-0.0029,-0.005,-0.0057,-0.008,-0.0081,-0.0062,-0.0079,-0.0075,-0.0071,-0.0047,0.0005,0.0018,-0.012,-0.012,-0.012,0,0,0.0133,0.0124,0.0123,0.0111,0.0097,0.0102,0.0068,0.0064,0.007,0.0019,0.0019,-0.0014,-0.0048,-0.0056,-0.0061,-0.0069,-0.0026,-0.007,-0.0066,-0.0044,0.0007,0.0021,0.0033,-0.0119,-0.0119,-0.012,0,0,0.0159,0.0145,0.0156,0.015,0.0138,0.0125,0.0129,0.0105,0.0096,0.0089,0.0052,0.0037,0.0001,-0.0013,-0.0027,-0.0007,-0.0006,-0.0026,0.0031,0.0081,0.0093,0.0105,0.0136,0.015,-0.0019,-0.0019,-0.0019,0,0.0171,0.0183,0.0159,0.0171,0.0176,0.0141,0.0161,0.0147,0.0124,0.013,0.0097,0.0067,0.0028,0.0039,0.0032,0.0007,0.003,0.0013,0.0091,0.0102,0.0113,0.0142,0.0157,-0.0016,-0.0017,-0.0017,-0.0017,0,0.0206,0.0217,0.0225,0.023,0.0231,0.0243,0.0226,0.0227,0.0207,0.0196,0.0199,0.015,0.0143,0.0113,0.0071,0.0121,0.0109,0.009,0.0085,0.0131,0.0158,0.0172,-0.0012,-0.0013,-0.0014,-0.0015,0,0,0.0234,0.0248,0.0252,0.0275,0.0267,0.0279,0.029,0.0303,0.0333,0.0295,0.034,0.0276,0.026,0.0243,0.0197,0.022,0.0289,0.0187,0.0188,0.0233,0.0399,0.0363,0.0375,0.029,0.0293,0.0295,0.0384,0,0.0272,0.0319,0.031,0.0359,0.0386,0.0367,0.0389,0.0394,0.039,0.0422,0.0384,0.0398,0.0308,0.0312,0.0321,0.0304,0.0332,0.0267,0.0335,0.0337,0.0313,0.0392,0.0363,0.0438,0.0398,0.04,0.0402,0,0.0311,0.0343,0.0399,0.0445,0.0455,0.0478,0.0526,0.0541,0.0563,0.0563,0.057,0.0545,0.0561,0.0483,0.0507,0.0473,0.0446,0.0425,0.0428,0.0391,0.0329,0.0385,0.0465,0.0344,0.0424,0.0422,0.042,0,0.0359,0.0407,0.0462,0.0475,0.0514,0.0543,0.0565,0.059,0.0625,0.067,0.0711,0.0711,0.0742,0.0713,0.0645,0.0595,0.0682,0.0612,0.0557,0.0553,0.0541,0.0531,0.0529,0.0653,0.0653,0.0653,0.0652,0,0.0409,0.0453,0.0495,0.0526,0.0603,0.0609,0.0686,0.0703,0.0757,0.083,0.0798,0.0869,0.0807,0.0828,0.0736,0.0707,0.0764,0.06,0.0592,0.0556,0.0548,0.0448,0.038,0.0656,0.0655,0.0655,0.0654,0,0.0452,0.0474,0.0543,0.0602,0.0625,0.0682,0.0753,0.0808,0.0855,0.0958,0.0985,0.103,0.1067,0.0991,0.0972,0.0849,0.0739,0.0771,0.0721,0.0705,0.05,0.0436,0.0462,0.0413,0.0731,0.0731,0.073,0,0.0477,0.0519,0.0597,0.0638,0.0667,0.0745,0.0793,0.0848,0.0913,0.1058,0.1121,0.1203,0.1267,0.1221,0.1052,0.0932,0.0793,0.0782,0.0667,0.0519,0.0442,0.0396,0.0349,0.0671,0.0671,0.067,0.067,0,0.0527,0.0552,0.0604,0.0687,0.0749,0.0826,0.0908,0.0979,0.1068,0.1188,0.1349,0.1428,0.1395,0.1288,0.1107,0.0984,0.0686,0.0766,0.0648,0.0437,0.0359,0.0296,0.0563,0.0666,0.0666,0.0666,0.0667,0.0667,0.0553,0.0596,0.0654,0.0736,0.0806,0.0898,0.0987,0.1092,0.124,0.1429,0.1497,0.1646,0.1449,0.1219,0.1038,0.0663,0.0687,0.051,0.046,0.0438,0.0348,0.0594,0.0655,0.0655,0.0656,0.0656,0.0656,0,0.058,0.0624,0.0697,0.0793,0.0876,0.0912,0.1054,0.1163,0.1361,0.153,0.1688,0.168,0.1417,0.1115,0.0631,0.0385,0.029,0.0254,0.0176,0.0152,0.0407,0.0357,0.0315,0.0315,0.0315,0.0315,0.0315,0.0315,0.0593,0.0655,0.0694,0.0827,0.0905,0.1041,0.1137,0.1311,0.1461,0.1673,0.1772,0.1832,0.1604,0.0776,0.0222,0.0098,-0.0063,-0.0082,-0.0141,-0.0003,0.0017,0.0035,-0.0029,-0.0152,-0.0152,-0.039,-0.0392,-0.0394]}],[{"header":{"parameterUnit":"m.s-1","parameterCategory":2,"la1":30.2991,"la2":30.254,"lo1":-89.0895,"lo2":-89.0444,"dy":0.0017,"dx":0.0017,"nx":28,"ny":28,"refTime":"2025-09-05T09:00:00:Z","depth":"2","parameterNumber":2,"parameterNumberName":"U-component_of_CURRENTS"},"data":[0,0,0,0,0,0,0,0,0,0,0,0,0,0,0,0,0,0,0,0,0,0,0,0,0,0,0,0,0,0,0,0,0,0,0,0,0,0,0,0,0,0,0,0,0,0,0,0,0,0,0,0,0,0,0,0,0,0,0.1992,0.1992,0,0.1982,0.1982,0.1981,0.1976,0.1976,0.1976,0.1977,0.1991,0.1991,0.1991,0,0,0,0,0,0,0,0,0,0,0,0,0,0.1983,0.1983,0.1992,0.1992,0.1992,0.1982,0.1982,0.1981,0.1976,0.1976,0.1976,0.1977,0.1991,0.1991,0.1991,0,0,0,0,0,0,0,0,0,0,0,0,0,0.1978,0.1983,0.1992,0.1991,0.1991,0.1982,0.1982,0.1981,0.1975,0.1976,0.1977,0.1977,0.1991,0.1991,0.1991,0.198,0,0,0.1991,0.1991,0,0,0,0,0,0,0,0,0.1978,0.1978,0.1991,0.1991,0.1992,0.1984,0.1984,0.1983,0.1975,0.1977,0.1977,0.1977,0.1993,0.1993,0.1984,0.1981,0.1981,0.1991,0.1991,0.1991,0.1991,0,0,0,0,0,0,0,0.1979,0.1978,0.1984,0.1991,0.1992,0.1985,0.1984,0.1983,0.1979,0.1977,0.1978,0.1983,0.1993,0.1983,0.1984,0.1982,0.1991,0.1991,0.1991,0.1991,0.2037,0.2038,0,0,0,0,0,0,0.1989,0.1978,0.1984,0.1984,0.1991,0.1985,0.1984,0.1983,0.1979,0.198,0.1983,0.1983,0.1983,0.1984,0.1985,0.2031,0.1991,0.1991,0.1991,0.2036,0.2037,0.2039,0,0,0,0,0,0,0.1988,0.1989,0.1984,0.1985,0.1984,0.1985,0.1983,0.1982,0.1991,0.1984,0.1984,0.1995,0.1984,0.1985,0.2003,0.2029,0.1991,0.1991,0.2035,0.2036,0.2038,0.2086,0,0,0,0,0,0,0.1988,0.1989,0.1993,0.1985,0.1985,0.1993,0.1983,0.1982,0.1994,0.1995,0.1994,0.1995,0.1984,0.2003,0.2003,0.2029,0.1991,0.2033,0.2035,0.2038,0.2083,0.2089,0.2094,0,0,0,0,0,0.1988,0.1993,0.1993,0.1994,0.199,0.1994,0.1992,0.1992,0.1995,0.2,0.2004,0.1996,0.2017,0.2004,0.2003,0.203,0.2032,0.2035,0.2037,0.208,0.2088,0.2094,0,0,0,0,0,0,0.1993,0.1993,0.1993,0.1998,0.2003,0.1995,0.2002,0.2003,0.2008,0.2013,0.2005,0.2006,0.2034,0.2025,0.201,0.2051,0.2026,0.2028,0.2058,0.2065,0.2071,0.2079,0.1991,0,0,0,0,0,0.1997,0.2001,0.2001,0.2008,0.2012,0.201,0.2013,0.2015,0.2018,0.2021,0.2022,0.2028,0.204,0.2049,0.2052,0.207,0.2096,0.209,0.2096,0.21,0.2108,0.22,0.2215,0.2048,0.2048,0.2048,0,0,0.1998,0.2003,0.2003,0.201,0.2012,0.2022,0.2012,0.2024,0.2037,0.2022,0.2043,0.2048,0.205,0.2073,0.2085,0.2072,0.2157,0.2104,0.2108,0.2113,0.2204,0.2221,0.2236,0.2049,0.2049,0.2049,0,0,0.2008,0.2011,0.2018,0.2025,0.2038,0.2041,0.2051,0.2053,0.2059,0.2078,0.2076,0.21,0.2109,0.2119,0.2125,0.2166,0.2185,0.2171,0.2207,0.2297,0.2312,0.2325,0.2359,0.2375,0.2174,0.2174,0.2174,0,0.2013,0.2022,0.2022,0.2034,0.2049,0.2055,0.2072,0.2075,0.2085,0.2106,0.2095,0.214,0.2133,0.2178,0.2186,0.218,0.2222,0.2179,0.2306,0.232,0.2334,0.2365,0.2382,0.2177,0.2177,0.2176,0.2176,0,0.2025,0.2037,0.2045,0.2065,0.2079,0.2096,0.2108,0.2127,0.2142,0.2157,0.2206,0.2201,0.2237,0.2234,0.2218,0.2303,0.2299,0.2305,0.2291,0.2354,0.2382,0.2399,0.2181,0.218,0.2179,0.2178,0,0,0.2022,0.2048,0.2053,0.2063,0.2099,0.2106,0.2146,0.2184,0.2221,0.2238,0.2297,0.2306,0.2323,0.2331,0.2324,0.238,0.2485,0.2383,0.2386,0.2419,0.2664,0.2548,0.2555,0.2534,0.2537,0.2541,0.2639,0,0.2034,0.2059,0.2078,0.2107,0.2118,0.2149,0.2186,0.2224,0.2263,0.2319,0.2343,0.2391,0.2356,0.2381,0.2438,0.2481,0.2538,0.2456,0.2595,0.2598,0.2492,0.2574,0.2349,0.2409,0.2655,0.2658,0.266,0,0.2042,0.2055,0.2086,0.2125,0.2135,0.2164,0.2236,0.2267,0.2353,0.2391,0.246,0.2485,0.2557,0.2523,0.2649,0.2609,0.2642,0.2665,0.2671,0.256,0.2515,0.2391,0.2431,0.2689,0.2687,0.2685,0.2683,0,0.2028,0.2063,0.2089,0.21,0.2146,0.2179,0.2218,0.2298,0.2342,0.2451,0.2499,0.26,0.2643,0.2733,0.2763,0.2738,0.2897,0.2873,0.2794,0.2784,0.2615,0.2583,0.2979,0.2979,0.2979,0.2978,0.2978,0,0.2034,0.2042,0.2083,0.2089,0.213,0.2171,0.2232,0.2296,0.2396,0.2454,0.2535,0.26,0.2707,0.279,0.2827,0.286,0.2962,0.2815,0.2819,0.2618,0.2588,0.2847,0.283,0.2982,0.2981,0.298,0.298,0,0.2011,0.2033,0.2052,0.2103,0.2123,0.2151,0.2233,0.2276,0.2375,0.2459,0.25,0.2639,0.274,0.2812,0.2948,0.2912,0.2974,0.2957,0.2679,0.2647,0.2779,0.2764,0.2889,0.2886,0.2884,0.2882,0.288,0,0.1996,0.201,0.2059,0.2057,0.208,0.2121,0.2157,0.2268,0.2334,0.2466,0.2522,0.2638,0.2686,0.2821,0.2823,0.2866,0.2943,0.266,0.2557,0.2788,0.278,0.2768,0.2756,0.2348,0.2342,0.2337,0.2333,0,0.1969,0.1998,0.2018,0.2026,0.2051,0.207,0.2145,0.218,0.2299,0.2367,0.2469,0.2511,0.2609,0.2554,0.2588,0.2583,0.2634,0.2558,0.2933,0.2388,0.2281,0.2271,0.2278,0.229,0.2294,0.2298,0.23,0.2302,0.1956,0.1956,0.1982,0.1983,0.1998,0.1991,0.1994,0.2069,0.2128,0.2184,0.2318,0.2305,0.2348,0.2278,0.2238,0.2207,0.2381,0.2278,0.2292,0.2312,0.2215,0.2108,0.2063,0.2066,0.2069,0.2071,0.2073,0,0.1916,0.1914,0.1919,0.1896,0.1872,0.1926,0.1964,0.1933,0.1947,0.2012,0.2059,0.1878,0.1838,0.1901,0.1778,0.1769,0.1747,0.1704,0.1666,0.171,0.175,0.1623,0.1316,0.1313,0.1311,0.1309,0,0,0.1881,0.1859,0.1855,0.1779,0.1766,0.1724,0.1729,0.1694,0.1719,0.1641,0.1631,0.1749,0.1829,0.1543,0.1511,0.1398,0.1539,0.1337,0.1947,0.1947,0.1983,0.2087,0.1942,0,0,0,0,0]},{"header":{"parameterUnit":"m.s-1","parameterCategory":2,"la1":30.2991,"la2":30.254,"lo1":-89.0895,"lo2":-89.0444,"dy":0.0017,"dx":0.0017,"nx":28,"ny":28,"refTime":"2025-09-05T09:00:00:Z","depth":"2","parameterNumber":3,"parameterNumberName":"V-component_of_CURRENTS"},"data":[0,0,0,0,0,0,0,0,0,0,0,0,0,0,0,0,0,0,0,0,0,0,0,0,0,0,0,0,0,0,0,0,0,0,0,0,0,0,0,0,0,0,0,0,0,0,0,0,0,0,0,0,0,0,0,0,0,0,0.0117,0.0117,0,0.0083,0.0083,0.0082,0.0058,0.0058,0.0058,0.0057,0.0006,0.0004,0.0003,0,0,0,0,0,0,0,0,0,0,0,0,0,0.0133,0.0133,0.0117,0.0117,0.0116,0.0083,0.0083,0.0082,0.0058,0.0058,0.0058,0.0057,0.0006,0.0004,0.0003,0,0,0,0,0,0,0,0,0,0,0,0,0,0.0115,0.0133,0.0117,0.0101,0.0099,0.0083,0.0083,0.0082,0.0058,0.0058,0.0058,0.0057,0.0006,0.0005,0.0003,-0.0005,0,0,-0.0003,-0.0004,0,0,0,0,0,0,0,0,0.0116,0.0114,0.0104,0.0102,0.01,0.0075,0.0069,0.0052,0.0058,0.0073,0.0057,0.0057,0.0028,0.0024,0.0017,-0.0008,-0.001,-0.0003,-0.0004,-0.0005,-0.0006,0,0,0,0,0,0,0,0.0117,0.0115,0.0103,0.0103,0.0101,0.0086,0.0083,0.0066,0.0051,0.0071,0.007,0.0067,0.0027,0.0019,0.0016,-0.0011,-0.0003,-0.0005,-0.0006,-0.0007,-0.0053,-0.0053,0,0,0,0,0,0,0.0125,0.0117,0.0104,0.0102,0.0109,0.0086,0.0083,0.0083,0.0051,0.0047,0.0068,0.0066,0.0023,0.0018,0.0014,0.0005,-0.0005,-0.0007,-0.0008,-0.0052,-0.0053,-0.0053,0,0,0,0,0,0,0.0125,0.0124,0.0105,0.0109,0.0106,0.0086,0.0086,0.0082,0.0075,0.0049,0.0044,0.0064,0.0022,0.0017,-0.0001,0.0003,-0.0008,-0.001,-0.0052,-0.0053,-0.0053,-0.0014,0,0,0,0,0,0,0.0126,0.0125,0.0126,0.011,0.0106,0.0099,0.0086,0.0082,0.0074,0.0072,0.0044,0.0039,0.0022,0.0002,-0.0003,0.0,-0.0011,-0.0052,-0.0052,-0.0053,-0.0015,-0.0013,-0.0011,0,0,0,0,0,0.0127,0.0131,0.0126,0.0124,0.0108,0.0099,0.0096,0.0081,0.0074,0.0073,0.0053,0.004,-0.0003,0.0,-0.0005,-0.0003,-0.0052,-0.0052,-0.0053,-0.0016,-0.0013,-0.0011,0,0,0,0,0,0,0.0136,0.0129,0.0123,0.0124,0.0114,0.0096,0.0093,0.0083,0.0066,0.0065,0.0039,0.0033,0.0018,0.0001,0.0005,-0.0017,-0.003,-0.0031,0.0,0.0003,0.0005,0.0026,-0.0013,0,0,0,0,0,0.014,0.0143,0.0131,0.0131,0.0128,0.0111,0.0105,0.0096,0.008,0.0073,0.0053,0.0031,0.0013,0.0003,-0.0016,-0.0027,-0.0033,-0.003,-0.0028,-0.0026,-0.0013,-0.0014,-0.001,-0.0053,-0.0053,-0.0053,0,0,0.0143,0.014,0.0141,0.0134,0.0124,0.0126,0.0107,0.0102,0.0103,0.0069,0.0063,0.0039,0.0011,-0.0001,-0.0009,-0.0015,-0.002,-0.0026,-0.0024,-0.0012,-0.0014,-0.0009,-0.0006,-0.0053,-0.0053,-0.0053,0,0,0.0156,0.0149,0.0158,0.0153,0.0145,0.0137,0.0137,0.0122,0.0114,0.0103,0.008,0.0061,0.0032,0.0016,0.0003,0.0006,-0.0008,-0.0004,0.0025,0.0024,0.0028,0.0031,0.0021,0.0023,-0.0003,-0.0003,-0.0003,0,0.0159,0.017,0.0157,0.0165,0.0167,0.0145,0.0156,0.0144,0.0124,0.0124,0.0106,0.007,0.0042,0.0034,0.0031,0.0013,0.0009,0.0018,0.0029,0.0032,0.0035,0.0024,0.0026,-0.0001,-0.0001,-0.0002,-0.0002,0,0.018,0.0187,0.0192,0.0198,0.0197,0.0201,0.0189,0.0185,0.0172,0.0162,0.0149,0.011,0.0092,0.0075,0.0052,0.0057,0.0046,0.0033,0.0027,0.0042,0.0028,0.003,0.0001,0.0001,0.0,-0.0,0,0,0.0191,0.0205,0.0207,0.0222,0.0217,0.0223,0.0224,0.0225,0.0239,0.0207,0.022,0.0173,0.0155,0.0139,0.0107,0.01,0.0105,0.0079,0.0078,0.0078,0.0101,0.0069,0.0067,0.0098,0.0099,0.01,0.008,0,0.0212,0.0244,0.024,0.0269,0.0286,0.0272,0.028,0.0277,0.0269,0.0275,0.0235,0.0234,0.0179,0.0176,0.0156,0.0128,0.0112,0.0111,0.0078,0.0077,0.0055,0.0069,0.0087,0.007,0.0082,0.0082,0.0082,0,0.0233,0.0256,0.0291,0.0321,0.0326,0.0337,0.0358,0.0366,0.0362,0.0356,0.034,0.0313,0.0293,0.0247,0.02,0.0204,0.0155,0.0124,0.0123,0.0085,0.0049,0.0057,0.0072,0.0084,0.0084,0.0084,0.0084,0,0.026,0.0292,0.0327,0.0335,0.036,0.0373,0.0387,0.0392,0.0419,0.0418,0.0435,0.0395,0.0391,0.033,0.0249,0.0233,0.0202,0.017,0.009,0.0087,0.0092,0.0088,0.0135,0.0135,0.0135,0.0136,0.0136,0,0.0286,0.0314,0.0345,0.0365,0.0415,0.0416,0.0467,0.0469,0.0496,0.0545,0.0485,0.0518,0.0416,0.0378,0.0289,0.0199,0.0228,0.0104,0.0085,0.0102,0.01,0.0105,0.0102,0.0135,0.0135,0.0135,0.0135,0,0.0308,0.0324,0.0372,0.0412,0.0429,0.0468,0.0529,0.0571,0.058,0.0643,0.0652,0.0628,0.0579,0.0459,0.037,0.026,0.0174,0.0129,0.0149,0.0132,0.0046,0.0045,0.0042,0.0041,0.004,0.0039,0.0039,0,0.0322,0.035,0.0413,0.0452,0.0472,0.0533,0.0578,0.0611,0.0673,0.0723,0.077,0.0733,0.072,0.0558,0.0376,0.0206,0.018,0.0095,0.0056,0.0057,0.0039,0.0039,0.0039,0.0075,0.0074,0.0074,0.0074,0,0.0357,0.0378,0.0421,0.0504,0.056,0.064,0.0715,0.0781,0.0834,0.0883,0.0963,0.0955,0.0782,0.0626,0.0364,0.0245,0.012,0.0081,0.0101,0.0089,0.0084,0.0067,0.0067,0.0071,0.0072,0.0072,0.0072,0.0072,0.0385,0.0423,0.0484,0.0564,0.0639,0.075,0.0827,0.092,0.1028,0.1102,0.1101,0.1071,0.0866,0.0536,0.0335,0.0105,0.0106,0.0017,0.002,0.0023,0.0023,0.0017,-0.0009,-0.0009,-0.0009,-0.001,-0.001,0,0.0424,0.047,0.0544,0.0649,0.0744,0.0775,0.0922,0.1,0.1137,0.1173,0.1214,0.1007,0.0819,0.0581,0.0243,0.0037,0.0023,-0.003,0.0008,0.0011,0.0014,0.0016,-0.0019,-0.002,-0.002,-0.0021,0,0,0.0446,0.0518,0.0556,0.0718,0.0798,0.0932,0.102,0.1127,0.1191,0.1225,0.1193,0.1139,0.0868,0.0622,0.0357,0.0174,0.0134,0.0128,0.0156,0.0235,0.0241,0.006,0.0068,0,0,0,0,0]}],[{"header":{"parameterUnit":"m.s-1","parameterCategory":2,"la1":30.2991,"la2":30.254,"lo1":-89.0895,"lo2":-89.0444,"dy":0.0017,"dx":0.0017,"nx":28,"ny":28,"refTime":"2025-09-05T09:00:00:Z","depth":"4","parameterNumber":2,"parameterNumberName":"U-component_of_CURRENTS"},"data":[0,0,0,0,0,0,0,0,0,0,0,0,0,0,0,0,0,0,0,0,0,0,0,0,0,0,0,0,0,0,0,0,0,0,0,0,0,0,0,0,0,0,0,0,0,0,0,0,0,0,0,0,0,0,0,0,0,0,0.1095,0.1096,0,0.1127,0.1127,0.1128,0.1155,0.1155,0.1156,0.1156,0.1205,0.1206,0.1206,0,0,0,0,0,0,0,0,0,0,0,0,0,0.1068,0.1068,0.1095,0.1096,0.1096,0.1127,0.1127,0.1128,0.1155,0.1155,0.1156,0.1156,0.1204,0.1205,0.1207,0,0,0,0,0,0,0,0,0,0,0,0,0,0.1087,0.1069,0.1095,0.1114,0.1117,0.1127,0.1127,0.1128,0.1155,0.1155,0.1156,0.1156,0.1204,0.1205,0.1207,0.1202,0,0,0.1211,0.1211,0,0,0,0,0,0,0,0,0.1086,0.1087,0.1111,0.1113,0.1116,0.1139,0.1136,0.1154,0.1154,0.1138,0.1156,0.1157,0.1185,0.1188,0.119,0.1204,0.1206,0.1211,0.1212,0.1212,0.1213,0,0,0,0,0,0,0,0.1084,0.1086,0.1106,0.1112,0.1114,0.1126,0.1129,0.1139,0.1157,0.114,0.1142,0.1148,0.1186,0.1188,0.1191,0.1207,0.1211,0.1212,0.1213,0.1213,0.1287,0.1288,0,0,0,0,0,0,0.1082,0.1085,0.1105,0.1107,0.1104,0.1126,0.1129,0.113,0.1156,0.1161,0.1148,0.1149,0.1186,0.119,0.1193,0.1248,0.1212,0.1213,0.1214,0.1286,0.1287,0.1288,0,0,0,0,0,0,0.1081,0.1083,0.1104,0.1098,0.1102,0.1125,0.1126,0.113,0.1158,0.1162,0.1167,0.1175,0.1187,0.1191,0.1231,0.1248,0.1214,0.1215,0.1284,0.1286,0.1288,0.1321,0,0,0,0,0,0,0.108,0.1083,0.1096,0.1098,0.1102,0.1128,0.1126,0.113,0.116,0.1163,0.1187,0.1191,0.1187,0.1229,0.1232,0.1249,0.1216,0.1283,0.1285,0.1287,0.1318,0.1323,0.1328,0,0,0,0,0,0.1079,0.1089,0.1096,0.11,0.1115,0.1129,0.1133,0.115,0.1161,0.1178,0.1199,0.1191,0.1245,0.1231,0.1235,0.1253,0.1282,0.1284,0.1287,0.1316,0.1322,0.1327,0,0,0,0,0,0,0.1084,0.1092,0.1101,0.1114,0.1131,0.1135,0.1155,0.1166,0.1194,0.1207,0.1209,0.1215,0.1255,0.1252,0.1238,0.1281,0.1261,0.1264,0.1281,0.1287,0.1292,0.1294,0.1217,0,0,0,0,0,0.1091,0.1103,0.1113,0.1127,0.1137,0.1152,0.1166,0.1179,0.1197,0.1212,0.1228,0.1247,0.1262,0.1276,0.1291,0.1316,0.1327,0.1329,0.1334,0.1338,0.1343,0.1389,0.1398,0.1297,0.1297,0.1297,0,0,0.1097,0.1105,0.1113,0.113,0.1145,0.116,0.1162,0.1191,0.1208,0.1212,0.1252,0.1269,0.1275,0.1304,0.1321,0.1308,0.1372,0.1341,0.1345,0.1348,0.1392,0.1402,0.1411,0.1299,0.1298,0.1298,0,0,0.1109,0.1124,0.1138,0.1152,0.118,0.1187,0.1201,0.1224,0.1243,0.1278,0.1286,0.1318,0.1342,0.135,0.1354,0.1395,0.1399,0.1402,0.1425,0.1469,0.1478,0.1486,0.1508,0.1518,0.1401,0.1401,0.1401,0,0.1121,0.1133,0.1146,0.1162,0.1179,0.12,0.1221,0.1236,0.1272,0.1295,0.1299,0.1356,0.1359,0.1393,0.1403,0.1405,0.1429,0.14,0.1476,0.1484,0.1491,0.1512,0.1523,0.1403,0.1402,0.1402,0.1402,0,0.1132,0.1154,0.1165,0.1189,0.121,0.1233,0.1253,0.1287,0.1313,0.133,0.1387,0.1401,0.1439,0.1438,0.143,0.1484,0.1483,0.1479,0.146,0.1503,0.1523,0.1533,0.1405,0.1405,0.1404,0.1404,0,0,0.1127,0.1165,0.1173,0.1189,0.1228,0.124,0.1282,0.132,0.1351,0.1393,0.144,0.1464,0.1492,0.1499,0.1505,0.1529,0.159,0.1529,0.153,0.1548,0.1687,0.1558,0.1557,0.161,0.1612,0.1614,0.1677,0,0.1137,0.1165,0.1188,0.1222,0.1236,0.1275,0.1305,0.1347,0.1385,0.1436,0.147,0.1516,0.1508,0.1539,0.1568,0.1591,0.162,0.1573,0.1644,0.1645,0.1524,0.1565,0.162,0.1684,0.1687,0.1688,0.169,0,0.1134,0.1155,0.1191,0.1233,0.1246,0.1275,0.1337,0.1369,0.1441,0.1477,0.1545,0.1576,0.1636,0.1618,0.1694,0.1673,0.1688,0.1693,0.1696,0.1571,0.1536,0.1634,0.1707,0.1706,0.1705,0.1704,0.1702,0,0.1104,0.1154,0.1183,0.1197,0.125,0.1288,0.1326,0.1392,0.1425,0.1522,0.1565,0.1643,0.1695,0.1738,0.176,0.1746,0.1828,0.1809,0.1707,0.1698,0.178,0.1771,0.1864,0.1864,0.1864,0.1864,0.1864,0,0.1085,0.1109,0.1176,0.1187,0.1226,0.1278,0.1328,0.1383,0.1464,0.1499,0.1595,0.1636,0.1732,0.1785,0.1795,0.1781,0.1869,0.1717,0.1709,0.1791,0.1783,0.1787,0.1777,0.1866,0.1866,0.1865,0.1865,0,0.1035,0.1083,0.1115,0.1186,0.121,0.1242,0.132,0.1343,0.1446,0.1503,0.1543,0.1662,0.1729,0.1793,0.1859,0.181,0.1813,0.1785,0.1869,0.1865,0.1644,0.1636,0.1676,0.1672,0.1669,0.1666,0.1664,0,0.1008,0.102,0.1098,0.1115,0.1152,0.1205,0.1224,0.1324,0.1346,0.149,0.1501,0.1622,0.1682,0.1693,0.176,0.1783,0.1757,0.175,0.1687,0.1638,0.1628,0.1624,0.162,0.1659,0.1658,0.1657,0.1656,0,0.0951,0.0992,0.1016,0.1043,0.1077,0.1098,0.1144,0.1162,0.1267,0.1372,0.1435,0.1489,0.156,0.1617,0.1652,0.1657,0.1748,0.1714,0.172,0.1662,0.1617,0.1609,0.1609,0.1645,0.1646,0.1647,0.1648,0,0.091,0.0908,0.0938,0.0957,0.0987,0.0981,0.1024,0.1055,0.1105,0.1269,0.1285,0.1421,0.1539,0.1551,0.1576,0.158,0.1548,0.1491,0.1509,0.1522,0.1439,0.1357,0.1304,0,0,0,0,0,0.0861,0.0837,0.0838,0.0849,0.0871,0.0892,0.0949,0.0996,0.111,0.1116,0.1202,0.1262,0.133,0.1403,0.1375,0.1485,0.1541,0.1443,0.148,0.1581,0.1594,0.1508,0,0,0,0,0,0,0.082,0.0817,0.0803,0.075,0.074,0.0748,0.0792,0.0873,0.0885,0.1022,0.1072,0.1174,0.1261,0.1337,0.1351,0.1367,0.1359,0.1525,0.1521,0.1573,0.1585,0.1596,0.1513,0,0,0,0,0]},{"header":{"parameterUnit":"m.s-1","parameterCategory":2,"la1":30.2991,"la2":30.254,"lo1":-89.0895,"lo2":-89.0444,"dy":0.0017,"dx":0.0017,"nx":28,"ny":28,"refTime":"2025-09-05T09:00:00:Z","depth":"4","parameterNumber":3,"parameterNumberName":"V-component_of_CURRENTS"},"data":[0,0,0,0,0,0,0,0,0,0,0,0,0,0,0,0,0,0,0,0,0,0,0,0,0,0,0,0,0,0,0,0,0,0,0,0,0,0,0,0,0,0,0,0,0,0,0,0,0,0,0,0,0,0,0,0,0,0,0.0156,0.0155,0,0.0138,0.0138,0.0138,0.0134,0.0134,0.0134,0.0134,0.011,0.011,0.0109,0,0,0,0,0,0,0,0,0,0,0,0,0,0.0158,0.0158,0.0156,0.0155,0.0155,0.0138,0.0138,0.0138,0.0134,0.0134,0.0134,0.0134,0.0111,0.011,0.0109,0,0,0,0,0,0,0,0,0,0,0,0,0,0.015,0.0158,0.0156,0.0152,0.0151,0.0138,0.0138,0.0138,0.0134,0.0134,0.0134,0.0134,0.0111,0.011,0.0109,0.0097,0,0,0.0105,0.0105,0,0,0,0,0,0,0,0,0.0151,0.015,0.0152,0.0152,0.0151,0.0139,0.013,0.0124,0.0134,0.014,0.0134,0.0134,0.0119,0.0118,0.0113,0.0096,0.0095,0.0105,0.0104,0.0104,0.0103,0,0,0,0,0,0,0,0.0151,0.0151,0.0148,0.0152,0.0151,0.0141,0.014,0.0129,0.0128,0.0139,0.0139,0.0138,0.0119,0.0114,0.0113,0.0094,0.0105,0.0104,0.0103,0.0103,0.0076,0.0076,0,0,0,0,0,0,0.0155,0.0151,0.0149,0.0148,0.0152,0.0141,0.014,0.0142,0.0128,0.0127,0.0137,0.0138,0.0116,0.0114,0.0112,0.011,0.0104,0.0103,0.0102,0.0076,0.0076,0.0076,0,0,0,0,0,0,0.0156,0.0155,0.015,0.0149,0.0148,0.0141,0.0143,0.0142,0.014,0.0127,0.0125,0.0138,0.0116,0.0113,0.0104,0.0109,0.0102,0.0101,0.0076,0.0076,0.0076,0.0098,0,0,0,0,0,0,0.0156,0.0156,0.0159,0.015,0.0148,0.0145,0.0143,0.0141,0.0139,0.0139,0.0126,0.0124,0.0116,0.0106,0.0103,0.0107,0.01,0.0076,0.0076,0.0076,0.0097,0.0099,0.01,0,0,0,0,0,0.0156,0.0159,0.0159,0.0159,0.0152,0.0145,0.0144,0.0139,0.0139,0.0138,0.013,0.0125,0.0104,0.0105,0.0102,0.0105,0.0076,0.0076,0.0076,0.0097,0.0098,0.01,0,0,0,0,0,0,0.0158,0.0158,0.0158,0.016,0.0155,0.0145,0.0144,0.014,0.0133,0.0135,0.0123,0.012,0.0114,0.0105,0.0106,0.0097,0.009,0.0089,0.0107,0.0108,0.011,0.0113,0.0099,0,0,0,0,0,0.0161,0.0166,0.016,0.0162,0.0161,0.0153,0.015,0.0147,0.014,0.0137,0.0128,0.0119,0.011,0.0106,0.0096,0.009,0.0071,0.009,0.0091,0.0092,0.0093,0.0068,0.0068,0.0076,0.0076,0.0076,0,0,0.0162,0.0163,0.0165,0.0163,0.016,0.0161,0.0152,0.015,0.0151,0.0135,0.0134,0.0122,0.0109,0.0104,0.01,0.0097,0.0079,0.0092,0.0094,0.0093,0.0068,0.0067,0.0067,0.0076,0.0076,0.0076,0,0,0.0167,0.0168,0.0174,0.0172,0.017,0.0166,0.0167,0.0159,0.0157,0.0152,0.0142,0.0132,0.012,0.0111,0.0105,0.0106,0.0086,0.0105,0.0115,0.0092,0.0091,0.009,0.0062,0.0058,0.0106,0.0106,0.0107,0,0.0167,0.0177,0.0173,0.0178,0.018,0.0171,0.0177,0.0172,0.0162,0.0161,0.0156,0.0135,0.0123,0.0115,0.0117,0.0109,0.0091,0.0112,0.0094,0.0093,0.0091,0.0062,0.0058,0.0108,0.0107,0.0107,0.0107,0,0.0177,0.0185,0.0187,0.0195,0.0195,0.0198,0.0193,0.0191,0.0188,0.0182,0.0173,0.0153,0.0142,0.0135,0.0127,0.0114,0.0102,0.0098,0.0091,0.0092,0.0061,0.0056,0.0109,0.0109,0.0108,0.0108,0,0,0.0178,0.0192,0.0194,0.0206,0.0206,0.021,0.0211,0.0211,0.0218,0.02,0.0201,0.0179,0.0168,0.016,0.0145,0.0123,0.0095,0.0109,0.0107,0.0082,0.0038,0.0036,0.003,0.0088,0.0088,0.0087,0.0019,0,0.0188,0.0208,0.0209,0.0229,0.0239,0.0235,0.024,0.0238,0.0234,0.0232,0.0205,0.0202,0.0178,0.0177,0.0149,0.0112,0.0084,0.0113,0.004,0.0037,0.0037,0.0026,0.0085,0.0016,0.0014,0.0014,0.0013,0,0.0195,0.0212,0.0234,0.0257,0.0261,0.027,0.0284,0.0291,0.0281,0.0275,0.0258,0.0239,0.0207,0.0188,0.0113,0.0134,0.0087,0.0052,0.0049,0.0037,0.0027,0.0015,0.0004,0.0004,0.0005,0.0006,0.0006,0,0.0205,0.0229,0.0252,0.0259,0.0279,0.029,0.0304,0.0305,0.0326,0.0309,0.0316,0.0265,0.0255,0.0183,0.0109,0.0112,0.0022,0.0017,-0.0034,-0.0035,-0.0023,-0.0021,-0.0042,-0.0042,-0.0042,-0.0042,-0.0042,0,0.0214,0.0234,0.0263,0.0276,0.0314,0.0317,0.0356,0.0355,0.037,0.0396,0.0348,0.035,0.0255,0.0195,0.0114,0.0024,0.0023,-0.0038,-0.0053,-0.0013,-0.0009,-0.0027,-0.0024,-0.0044,-0.0044,-0.0043,-0.0043,0,0.0222,0.0236,0.0271,0.0304,0.032,0.0351,0.0407,0.0438,0.0437,0.0468,0.0467,0.0418,0.0335,0.0229,0.0113,0.0046,-0.005,-0.0082,-0.0037,-0.0048,-0.0096,-0.0091,-0.0148,-0.0149,-0.0149,-0.015,-0.015,0,0.0227,0.0245,0.0299,0.0333,0.0354,0.0405,0.0446,0.0471,0.0507,0.0511,0.0527,0.0461,0.0409,0.0242,0.0123,-0.0045,-0.0064,-0.0119,-0.0108,-0.0098,-0.0107,-0.0101,-0.0096,-0.0151,-0.0151,-0.0151,-0.0151,0,0.0245,0.0264,0.0299,0.0366,0.0418,0.0481,0.0538,0.0571,0.0598,0.0597,0.0578,0.0489,0.0393,0.0253,0.012,0.0003,-0.0087,-0.0125,-0.0124,-0.0114,-0.0102,-0.0109,-0.0104,-0.0153,-0.0153,-0.0153,-0.0153,0,0.0263,0.0292,0.0339,0.0401,0.0469,0.0536,0.0566,0.0607,0.0639,0.0637,0.0629,0.0516,0.0453,0.0277,0.0157,0.0036,0.0007,-0.003,-0.0035,-0.0034,0.0018,0.0052,0.0032,0,0,0,0,0,0.0281,0.0315,0.0373,0.0441,0.0509,0.0547,0.0619,0.0645,0.0667,0.0662,0.0648,0.0554,0.0378,0.0305,0.0184,0.014,-0.0019,-0.0005,-0.0065,-0.0164,-0.0161,-0.0119,0,0,0,0,0,0,0.0292,0.0344,0.0372,0.0462,0.0513,0.059,0.0637,0.0655,0.0655,0.0654,0.0565,0.0517,0.0348,0.044,0.0177,0.0141,0.0086,-0.0088,-0.0091,-0.0165,-0.0163,-0.0161,-0.0117,0,0,0,0,0]}]]